Flag for Germany Weather past 2 weeks in Cuxhaven, Lower Saxony, Germany

Now
43 °F

Partly sunny.


Feels Like: 31 °F
Forecast: 39 / 45 °F
Wind: 36 mph from Northwest

Location: Nordholz

Current Time: Mar 31, 2015 at 7:56:46 PM

Latest Report: Mar 31, 2015 at 7:20 PM


Visibility: N/A

Pressure: 29.39 "Hg

Humidity: 76%

Dew point: 36 °F

Location of CuxhavenLocation

Historic Weather in Cuxhaven — Graph

°F

Cuxhaven temperature yesterday

Maximum temperature yesterday: 45 °F (at 1:20 PM)
Minimum temperature yesterday: 41 °F (at 5:20 AM)
Average temperature yesterday: 43 °F

Past Weeks' High & Low Weather Summary

 TemperatureHumidityPressure
High57 °F (Mar 17, 3:20 PM)100% (Mar 18, 7:02 AM)30.45 "Hg (Mar 18, 7:02 AM)
Low28 °F (Mar 22, 5:20 AM)28% (Mar 19, 12:20 PM)28.91 "Hg (Mar 29, 8:53 PM)
Average43 °F80%29.88 "Hg
* Reported Mar 16 5:20 PM — Mar 31 6:20 PM, Cuxhaven, Weather by CustomWeather, © 2015

Note: Actual official high and low records may vary slightly from our data, if they occured in-between our weather recording intervals... More about our weather records

Advertising

Cuxhaven weather history for previous 24 hours

 ConditionsComfort  
Time TempWeatherWind HumidityBarometerVisibility
6:20 PM
Tue, Mar 31
43 °FSprinkles. Partly sunny.40 mph76%29.33 "Hg3 mi
5:20 PM43 °FBroken clouds.43 mph81%29.27 "HgN/A
4:45 PM43 °FSprinkles. Partly sunny.48 mph81%29.21 "Hg4 mi
4:20 PM43 °FSprinkles. Partly sunny.45 mph87%29.21 "Hg3 mi
3:20 PM43 °FDrizzle. Broken clouds.44 mph81%29.12 "Hg6 mi
2:20 PM43 °FLight rain. Broken clouds.44 mph87%29.06 "Hg4 mi
1:51 PM43 °FDrizzle. Fog.39 mph93%29.03 "Hg2 mi
1:20 PM43 °FDrizzle. Fog.31 mph93%29.03 "Hg2 mi
12:49 PM45 °FDrizzle. Fog.30 mph87%29.03 "Hg2 mi
12:20 PM45 °FDrizzle. Broken clouds.36 mph87%29.00 "Hg5 mi
11:46 AM45 °FSprinkles. Partly sunny.30 mph87%28.97 "Hg4 mi
11:20 AM46 °FSprinkles. Partly sunny.32 mph82%28.97 "Hg5 mi
10:20 AM46 °FBroken clouds.31 mph82%28.97 "HgN/A
9:20 AM46 °FBroken clouds.30 mph82%28.94 "HgN/A
8:20 AM46 °FBroken clouds.28 mph87%28.94 "HgN/A
7:20 AM41 °FRain. Fog.20 mph93%28.94 "Hg2 mi
6:20 AM37 °FRain. Fog.20 mph100%28.97 "Hg3 mi
5:20 AM36 °FLight rain. Fog.21 mph93%29.03 "Hg3 mi
4:20 AM36 °FLight rain. Passing clouds.16 mph93%29.15 "Hg4 mi
3:20 AM36 °FLight rain. Passing clouds.15 mph93%29.30 "Hg4 mi
3:03 AM37 °FLight rain. Passing clouds.14 mph87%29.33 "Hg4 mi
2:20 AM39 °FLight rain. Passing clouds.18 mph75%29.39 "HgN/A
1:20 AM41 °FPartly cloudy.18 mph70%29.47 "HgN/A
12:20 AM41 °FPassing clouds.14 mph76%29.53 "HgN/A
11:20 PM
Mon, Mar 30
41 °FOvercast.15 mph81%29.56 "HgN/A
10:20 PM43 °FPassing clouds.20 mph76%29.62 "HgN/A
9:20 PM43 °FPassing clouds.23 mph71%29.62 "HgN/A
8:55 PM41 °FPassing clouds.24 mph76%29.62 "HgN/A
8:20 PM43 °FScattered clouds.28 mph71%29.62 "HgN/A
7:20 PM43 °FScattered clouds.31 mph66%29.62 "HgN/A
Weather by CustomWeather, © 2015

See weather overviewHow to use our weather pages